COSMOS 1339

Satellite information

Favourite Embed

Satellite Type and Status

PAYLOADIN ORBIT

Key statistics

Satellite COSMOS 1339 at a glance.

Uptime

15847

Days in orbit

Revolutions

≈ 13.8

Per day

Orbit

LEO

Low Earth Orbit

Inclination

82.9

Latest

Satellite identification and parameters

Extended collection of information and parameters for COSMOS 1339.

Object identification

Identified? True

Debris? False

Object name: COSMOS 1339

International designator: 1982-012A

Object number (NORAD): 13065

Object ID (CCSDS): 13065

Country: COMMONWEALTH OF INDEPENDENT STATES (CIS)

Current information (Y/N): Y

RCS size: LARGE

Orbital parameters

Period: 104.671 minutes

Inclination: 82.8987 deg

SMA: 7357.155 km

Apoapsis: 1011.637 km

Periapsis: 946.404 km

RAAN: 217.2827 deg

Eccentricy: 0.0044333

Argument of periapsis: 45.4786 deg

Mean anomaly: 314.9978 deg

Mean motion: 13.75744864 rev/day

Mean motion (dot): 0.00000049 rev/day2

B* drag term: 0.000034967 1/REarth

Two-line elements (TLE)

Creation date: July 6, 2025, 10:36 p.m.

Reference frame: TEME

Reference center: EARTH

Epoch: July 6, 2025, 2:26 p.m. UTC

TLE line 0: 0 COSMOS 1339

TLE line 1: 1 13065U 82012A 25187.60168481 .00000049 00000-0 34967-4 0 9991

TLE line 2: 2 13065 82.8987 217.2827 0044333 45.4786 314.9978 13.75744864177307

Live tracking on map

Real-time ground track for satellite COSMOS 1339.

In-orbit conjunctions

A list of the most updated potential collisions computed for object COSMOS 1339.

Target Orbit TCA Probability of collision Miss distance Type
THORAD AGENA D DEB SSO 2025-01-01 23:21:43 0.0001143372 255.0 (m) DEBRIS

Associated space launch

Civilian navigation satellite equivalent to the purely military Parus

COSMOS 1339 was lifted into orbit during the mission ‘Kosmos-3M | Tsikada 9’, on board a Kosmos-3M space rocket.

The launch took place on Feb. 17, 1982, 9:56 p.m. from 132/2.

For more information about the launch, click the button.

Launch to space Kosmos-3M | Tsikada 9
Kosmos-3M | Tsikada 9

Agency: N/A

Status: Launch Successful

Launch date: Feb. 17, 1982, 9:56 p.m. UTC

Rocket: Kosmos-3M

Launch pad: 132/2

Location: Plesetsk Cosmodrome, Russian Federation

...

Latest news about this satellite

There are no fresh news available about this satellite. Check back as we update our databases every day.


Newsletter sign-up

Weekly statistics, charts and insights to help you stay on top of the space industry.